Back to catalog

STARLINK-5518

AliveCommunicationsVLEO
NORAD 56469·PAYLOAD·🇺🇸 United States

Launched May 10, 2023 from Vandenberg Space Force Base

Loading…

Next Passes (next 24 hours)

TLE

FreshSource: CelesTrak SupGP

Epoch: Sep 14, 2026, 22:08 UTC

1 56469C 23064X   26257.92270833  .00432020  00000+0  32218-1 0  2575
2 56469  70.0004   7.4981 0003101 274.2908 332.3633 15.02574339    12

Track STARLINK-5518 in real time with AllMySat

Download on the App Store